G0TRT-13 Weather Reports


time (UTC)temp
C
wind
direction
speed
KPH
gust
KPH
rain 1hr
cm
rain 24hr
cm
rain mn
cm
humidity
%
barometer
mb
20260507004031 6 177 0.0 1.6 0.00 0.00 0.00 83 1014.8
20260507003531 6 115 0.0 0.0 0.00 0.00 0.00 82 1014.8
20260507003033 6 115 0.0 0.0 0.00 0.00 0.00 82 1014.8
20260507002530 6 115 0.0 0.0 0.00 0.00 0.00 82 1014.9
20260507002030 6 115 0.0 0.0 0.00 0.00 0.00 82 1014.8
20260507001535 6 115 0.0 1.6 0.00 0.00 0.00 82 1014.9
20260507001030 6 113 0.0 1.6 0.00 0.00 0.00 82 1015.0
20260507000532 6 113 0.0 1.6 0.00 0.00 0.00 81 1014.9
20260507000029 6 113 0.0 1.6 0.00 0.00 0.00 81 1014.9
20260506235527 6 113 0.0 1.6 0.00 0.00 0.00 81 1014.9
20260506235027 6 113 0.0 1.6 0.00 0.00 0.00 81 1015.0
20260506234528 6 113 0.0 1.6 0.00 0.00 0.00 80 1015.0
20260506234024 6 112 0.0 1.6 0.00 0.00 0.00 80 1015.1
20260506233524 6 113 0.0 1.6 0.00 0.00 0.00 80 1015.0
20260506233022 6 112 0.0 3.2 0.00 0.00 0.00 80 1015.1
20260506232520 5 112 0.0 3.2 0.00 0.00 0.00 80 1015.0
20260506232018 5 113 0.0 3.2 0.00 0.00 0.00 80 1014.9
20260506231516 5 113 0.0 3.2 0.00 0.00 0.00 81 1015.0
20260506231013 5 114 0.0 1.6 0.00 0.00 0.00 81 1014.9
20260506230511 5 114 0.0 0.0 0.00 0.00 0.00 80 1015.0
20260506230010 5 114 0.0 0.0 0.00 0.00 0.00 80 1014.9
20260506225507 5 114 0.0 0.0 0.00 0.00 0.00 79 1015.0
20260506225006 5 114 0.0 0.0 0.00 0.00 0.00 79 1014.9
20260506224506 5 114 0.0 0.0 0.00 0.00 0.00 78 1015.0
20260506224006 5 114 0.0 0.0 0.00 0.00 0.00 78 1015.0
20260506223504 6 114 0.0 0.0 0.00 0.00 0.00 78 1014.9
20260506222957 6 114 0.0 0.0 0.00 0.00 0.00 77 1014.8
20260506222453 6 114 0.0 0.0 0.00 0.00 0.00 77 1014.8
20260506221953 6 114 0.0 1.6 0.00 0.00 0.00 77 1014.6
20260506221453 6 114 0.0 1.6 0.00 0.00 0.00 77 1014.7
20260506220953 6 114 0.0 0.0 0.00 0.00 0.00 77 1014.6
20260506220450 6 115 0.0 1.6 0.00 0.00 0.00 77 1014.6
20260506215950 6 115 0.0 1.6 0.00 0.00 0.00 77 1014.6
20260506215448 6 115 0.0 1.6 0.00 0.00 0.00 77 1014.6
20260506214947 6 115 0.0 0.0 0.00 0.00 0.00 75 1014.7
20260506214448 6 115 0.0 0.0 0.00 0.00 0.00 75 1014.6
20260506213946 6 115 0.0 0.0 0.00 0.00 0.00 74 1014.6
20260506213443 6 115 0.0 0.0 0.00 0.00 0.00 73 1014.6
20260506212942 7 115 0.0 0.0 0.00 0.00 0.00 72 1014.6
20260506212440 7 115 0.0 0.0 0.00 0.00 0.00 72 1014.7
20260506211937 7 115 0.0 1.6 0.00 0.00 0.00 72 1014.6
20260506211436 7 115 0.0 1.6 0.00 0.00 0.00 72 1014.5
20260506210932 7 115 0.0 1.6 0.00 0.00 0.00 71 1014.6
20260506210431 8 115 0.0 1.6 0.00 0.00 0.00 71 1014.4
20260506205931 8 114 0.0 3.2 0.00 0.00 0.00 71 1014.6
20260506205431 8 114 0.0 3.2 0.00 0.00 0.00 70 1014.4
20260506204937 8 114 0.0 1.6 0.00 0.00 0.00 70 1014.4
20260506204437 8 114 0.0 1.6 0.00 0.00 0.00 70 1014.3
20260506203932 8 114 0.0 0.0 0.00 0.00 0.00 69 1014.2
20260506203424 8 114 0.0 0.0 0.00 0.00 0.00 69 1014.3
20260506202921 8 114 0.0 0.0 0.00 0.00 0.00 69 1014.3
20260506202420 8 114 0.0 3.2 0.00 0.00 0.00 68 1014.1
20260506201918 9 114 0.0 3.2 0.00 0.00 0.00 67 1014.0
20260506201415 9 113 0.0 3.2 0.00 0.00 0.00 67 1013.8
20260506200916 9 114 0.0 3.2 0.00 0.00 0.00 67 1013.8
20260506200413 9 114 0.0 3.2 0.00 0.00 0.00 66 1013.8
20260506195911 10 115 0.0 1.6 0.00 0.00 0.00 66 1013.9
20260506195412 10 115 0.0 1.6 0.00 0.00 0.00 66 1013.9
20260506194911 10 115 0.0 1.6 0.00 0.00 0.00 65 1013.9
20260506194410 10 115 0.0 3.2 0.00 0.00 0.00 65 1013.9
20260506193907 10 115 0.0 3.2 0.00 0.00 0.00 64 1013.8
20260506193406 10 114 0.0 3.2 0.00 0.00 0.00 63 1013.8
20260506192905 11 115 0.0 3.2 0.00 0.00 0.00 62 1013.8
20260506192405 11 115 0.0 3.2 0.00 0.00 0.00 61 1013.8
20260506191903 11 115 0.0 3.2 0.00 0.00 0.00 60 1013.7
20260506191405 11 115 0.0 4.8 0.00 0.00 0.00 59 1013.7
20260506190905 11 116 0.0 6.4 0.00 0.00 0.00 59 1013.6
20260506190406 12 116 0.0 6.4 0.00 0.00 0.00 58 1013.6
20260506185904 12 115 0.0 3.2 0.00 0.00 0.00 59 1013.6
20260506185402 12 115 0.0 3.2 0.00 0.00 0.00 59 1013.6
20260506184903 12 118 0.0 1.6 0.00 0.00 0.00 58 1013.6
20260506183903 12 117 0.0 3.2 0.00 0.00 0.00 57 1013.5
20260506183405 12 114 0.0 1.6 0.00 0.00 0.00 57 1013.6
20260506182902 12 114 0.0 1.6 0.00 0.00 0.00 57 1013.4
20260506182403 12 114 0.0 4.8 0.00 0.00 0.00 57 1013.5
20260506181902 12 114 0.0 4.8 0.00 0.00 0.00 56 1013.4
20260506181403 12 113 0.0 1.6 0.00 0.00 0.00 56 1013.4
20260506180902 12 113 0.0 4.8 0.00 0.00 0.00 56 1013.3
20260506180402 12 113 0.0 4.8 0.00 0.00 0.00 55 1013.3
20260506175901 12 114 0.0 3.2 0.00 0.00 0.00 55 1013.1
20260506175405 12 113 0.0 3.2 0.00 0.00 0.00 56 1013.1
20260506174903 13 113 0.0 3.2 0.00 0.00 0.00 55 1013.0
20260506174403 13 118 0.0 4.8 0.00 0.00 0.00 56 1013.0
20260506173902 13 140 0.0 4.8 0.00 0.00 0.00 55 1013.0
20260506173403 13 214 0.0 1.6 0.00 0.00 0.00 54 1013.0
20260506172857 13 110 0.0 1.6 0.00 0.00 0.00 54 1012.9
20260506172352 13 115 0.0 1.6 0.00 0.00 0.00 55 1013.0
20260506171846 13 134 0.0 1.6 0.00 0.00 0.00 55 1013.0
20260506171344 13 120 0.0 4.8 0.00 0.00 0.00 55 1013.0
20260506170837 13 120 0.0 4.8 0.00 0.00 0.00 55 1012.9
20260506170337 13 122 0.0 6.4 0.00 0.00 0.00 54 1013.0
20260506165836 13 116 0.0 6.4 0.00 0.00 0.00 52 1012.9
20260506165333 13 115 0.0 1.6 0.00 0.00 0.00 53 1013.0
20260506164831 13 192 0.0 1.6 0.00 0.00 0.00 52 1013.0
20260506164332 14 117 0.0 1.6 0.00 0.00 0.00 50 1013.0
20260506163831 14 227 0.0 1.6 0.00 0.00 0.00 51 1012.9
20260506163332 14 228 0.0 3.2 0.00 0.00 0.00 51 1012.9
20260506162831 14 214 0.0 3.2 0.00 0.00 0.00 51 1012.9
20260506162331 14 233 0.0 1.6 0.00 0.00 0.00 50 1012.8
20260506161831 14 141 0.0 1.6 0.00 0.00 0.00 52 1012.9
20260506161331 13 108 0.0 1.6 0.00 0.00 0.00 54 1013.0
20260506160831 13 117 0.0 4.8 0.00 0.00 0.00 53 1012.9
20260506160331 13 117 1.6 6.4 0.00 0.00 0.00 52 1013.0
20260506155835 14 117 1.6 6.4 0.00 0.00 0.00 52 1012.9
20260506155329 14 117 0.0 6.4 0.00 0.00 0.00 52 1012.9
20260506154827 14 144 0.0 4.8 0.00 0.00 0.00 52 1013.0
20260506154328 15 114 0.0 4.8 0.00 0.00 0.00 51 1013.0
20260506153827 15 221 0.0 3.2 0.00 0.00 0.00 51 1013.0
20260506153328 15 221 0.0 4.8 0.00 0.00 0.00 50 1013.0
20260506152826 15 227 0.0 4.8 0.00 0.00 0.00 50 1013.0
20260506152325 15 111 0.0 3.2 0.00 0.00 0.00 51 1013.0
20260506151823 15 114 0.0 1.6 0.00 0.00 0.00 51 1013.1
20260506151322 15 231 0.0 1.6 0.00 0.00 0.00 51 1013.1
20260506150822 15 101 0.0 4.8 0.00 0.00 0.00 50 1013.1
20260506150321 16 77 1.6 4.8 0.00 0.00 0.00 49 1013.1
20260506145821 16 223 0.0 4.8 0.00 0.00 0.00 50 1013.2
20260506145319 16 233 1.6 9.7 0.00 0.00 0.00 48 1013.2
20260506144819 15 226 1.6 9.7 0.00 0.00 0.00 48 1013.2
20260506144320 15 230 0.0 3.2 0.00 0.00 0.00 51 1013.2
20260506143819 15 122 0.0 9.7 0.00 0.00 0.00 51 1013.3
20260506143319 15 103 0.0 9.7 0.00 0.00 0.00 52 1013.3
20260506142820 15 115 0.0 3.2 0.00 0.00 0.00 52 1013.4
20260506142319 14 207 0.0 3.2 0.00 0.00 0.00 54 1013.3
20260506141819 14 131 0.0 11.3 0.00 0.00 0.00 54 1013.4
20260506141319 14 127 1.6 11.3 0.00 0.00 0.00 54 1013.4
20260506140819 14 132 1.6 8.0 0.00 0.00 0.00 51 1013.4
20260506140319 15 231 1.6 4.8 0.00 0.00 0.00 52 1013.4
20260506135819 14 119 0.0 4.8 0.00 0.00 0.00 51 1013.5
20260506135319 14 146 0.0 6.4 0.00 0.00 0.00 52 1013.7
20260506134819 14 143 1.6 6.4 0.00 0.00 0.00 54 1013.6
20260506134319 15 144 1.6 11.3 0.00 0.00 0.00 49 1013.5
20260506133819 15 146 1.6 11.3 0.00 0.00 0.00 48 1013.6
20260506133319 16 233 1.6 6.4 0.00 0.00 0.00 48 1013.5
20260506132820 16 105 1.6 8.0 0.00 0.00 0.00 47 1013.6
20260506132317 16 110 0.0 8.0 0.00 0.00 0.00 49 1013.6
20260506131815 15 231 0.0 4.8 0.00 0.00 0.00 50 1013.5
20260506131315 15 233 1.6 4.8 0.00 0.00 0.00 48 1013.6
20260506130813 15 118 1.6 6.4 0.00 0.00 0.00 47 1013.7
20260506130314 16 226 1.6 6.4 0.00 0.00 0.00 49 1013.8
20260506125813 15 146 1.6 6.4 0.00 0.00 0.00 49 1013.7
20260506125310 15 226 1.6 6.4 0.00 0.00 0.00 48 1013.7
20260506124810 15 120 1.6 9.7 0.00 0.00 0.00 48 1013.7
20260506124309 15 107 1.6 9.7 0.00 0.00 0.00 51 1013.6
20260506123809 15 220 1.6 8.0 0.00 0.00 0.00 50 1013.6
20260506123309 15 118 1.6 8.0 0.00 0.00 0.00 46 1013.6
20260506122807 15 114 0.0 8.0 0.00 0.00 0.00 47 1013.6
20260506122307 15 116 0.0 4.8 0.00 0.00 0.00 48 1013.7
20260506121805 15 219 1.6 4.8 0.00 0.00 0.00 47 1013.7
20260506121303 15 116 1.6 8.0 0.00 0.00 0.00 51 1013.7
20260506120802 14 117 3.2 9.7 0.00 0.00 0.00 50 1013.8
20260506120301 14 118 1.6 9.7 0.00 0.00 0.00 50 1013.8
20260506115755 15 122 1.6 8.0 0.00 0.00 0.00 50 1013.9
20260506115248 14 115 1.6 11.3 0.00 0.00 0.00 50 1013.9
20260506114743 14 115 1.6 11.3 0.00 0.00 0.00 47 1013.9
20260506114242 14 116 1.6 9.7 0.00 0.00 0.00 48 1014.0
20260506113743 13 117 1.6 9.7 0.00 0.00 0.00 50 1014.0
20260506113243 14 119 1.6 9.7 0.00 0.00 0.00 49 1013.9
20260506112742 14 113 1.6 11.3 0.00 0.00 0.00 52 1013.9
20260506112240 14 139 1.6 11.3 0.00 0.00 0.00 52 1013.9
20260506111741 14 110 1.6 6.4 0.00 0.00 0.00 54 1013.9
20260506111240 13 113 1.6 6.4 0.00 0.00 0.00 53 1014.0
20260506110741 13 109 1.6 9.7 0.00 0.00 0.00 54 1013.9
20260506110239 13 116 1.6 9.7 0.00 0.00 0.00 54 1014.0
20260506105737 13 118 1.6 8.0 0.00 0.00 0.00 54 1014.0
20260506105237 13 188 3.2 8.0 0.00 0.00 0.00 57 1014.0
20260506104737 13 110 1.6 8.0 0.00 0.00 0.00 54 1014.0
20260506104236 13 226 1.6 9.7 0.00 0.00 0.00 58 1013.9
20260506103734 13 224 1.6 9.7 0.00 0.00 0.00 60 1013.9
20260506103236 13 219 1.6 4.8 0.00 0.00 0.00 60 1013.8
20260506102733 13 218 1.6 4.8 0.00 0.00 0.00 61 1013.8
20260506102233 13 142 1.6 6.4 0.00 0.00 0.00 62 1013.8
20260506101732 13 111 0.0 6.4 0.00 0.00 0.00 60 1013.8
20260506101230 12 209 0.0 4.8 0.00 0.00 0.00 61 1013.8
20260506100725 12 211 1.6 8.0 0.00 0.00 0.00 61 1013.8
20260506100222 12 122 1.6 8.0 0.00 0.00 0.00 63 1013.9
20260506095721 12 288 1.6 6.4 0.00 0.00 0.00 62 1013.9
20260506095221 12 293 1.6 8.0 0.00 0.00 0.00 64 1013.7
20260506094720 12 293 1.6 8.0 0.00 0.00 0.00 63 1013.8
20260506094218 12 301 1.6 8.0 0.00 0.00 0.00 64 1013.8
20260506093719 12 298 1.6 6.4 0.00 0.00 0.00 66 1013.8
20260506093219 11 297 0.0 6.4 0.00 0.00 0.00 66 1013.8
20260506092716 11 297 0.0 4.8 0.00 0.00 0.00 65 1013.7
20260506092217 11 296 0.0 4.8 0.00 0.00 0.00 66 1013.8
20260506091717 11 291 0.0 4.8 0.00 0.00 0.00 68 1013.9
20260506091215 10 298 1.6 4.8 0.00 0.00 0.00 67 1013.7
20260506090712 10 297 1.6 4.8 0.00 0.00 0.00 66 1013.8
20260506090211 10 297 1.6 6.4 0.00 0.00 0.00 67 1013.9
20260506085709 10 293 1.6 6.4 0.00 0.00 0.00 68 1013.8
20260506085207 10 293 1.6 4.8 0.00 0.00 0.00 70 1013.8
20260506084703 10 297 1.6 4.8 0.00 0.00 0.00 70 1013.8
20260506084202 10 297 0.0 4.8 0.00 0.00 0.00 70 1013.8
20260506083703 10 297 0.0 8.0 0.00 0.00 0.00 72 1013.7
20260506083202 10 58 1.6 8.0 0.00 0.00 0.00 71 1013.9
20260506082703 10 302 0.0 8.0 0.00 0.00 0.00 71 1013.9
20260506082159 10 299 0.0 4.8 0.00 0.00 0.00 72 1013.8
20260506081652 10 292 0.0 4.8 0.00 0.00 0.00 74 1013.8
20260506081146 9 304 0.0 4.8 0.00 0.00 0.00 74 1013.8
20260506080646 8 294 0.0 6.4 0.00 0.00 0.00 74 1013.8
20260506080147 8 289 0.0 6.4 0.00 0.00 0.00 75 1013.7
20260506073137 8 295 0.0 3.2 0.00 0.00 0.00 77 1013.6
20260506072637 8 291 0.0 3.2 0.00 0.00 0.00 78 1013.6
20260506072138 8 290 0.0 4.8 0.00 0.00 0.00 78 1013.6
20260506071635 8 297 0.0 4.8 0.00 0.00 0.00 78 1013.7
20260506071135 8 297 0.0 3.2 0.00 0.00 0.00 79 1013.6
20260506070634 8 290 0.0 6.4 0.00 0.00 0.00 80 1013.7
20260506070134 7 295 0.0 6.4 0.00 0.00 0.00 80 1013.4
20260506062127 7 295 0.0 4.8 0.00 0.00 0.00 81 1013.3
20260506061624 7 291 0.0 3.2 0.00 0.00 0.00 81 1013.2
20260506061125 7 296 0.0 3.2 0.00 0.00 0.00 81 1013.3
20260506060625 7 301 0.0 3.2 0.00 0.00 0.00 81 1013.2
20260506060125 7 294 0.0 3.2 0.00 0.00 0.00 81 1013.3
20260506051114 7 293 0.0 3.2 0.00 0.00 0.00 82 1013.0
20260506050627 7 292 0.0 4.8 0.00 0.00 0.00 82 1013.0
20260506050119 7 292 0.0 4.8 0.00 0.00 0.00 82 1013.0
20260506045114 7 297 0.0 3.2 0.00 0.00 0.00 82 1013.0
20260506044614 7 295 0.0 3.2 0.00 0.00 0.00 82 1012.9
20260506044115 7 296 0.0 4.8 0.00 0.00 0.00 82 1012.9
20260506043614 7 293 0.0 4.8 0.00 0.00 0.00 81 1012.9
20260506043114 8 302 0.0 4.8 0.00 0.00 0.00 81 1012.9
20260506042614 8 300 0.0 4.8 0.00 0.00 0.00 81 1012.9
20260506042114 8 300 0.0 4.8 0.00 0.00 0.00 81 1012.9
20260506041613 8 296 0.0 4.8 0.00 0.00 0.00 81 1012.8
20260506041116 8 299 1.6 9.7 0.00 0.00 0.00 80 1012.7
20260506040617 8 298 1.6 9.7 0.00 0.00 0.00 80 1012.9
20260506040114 8 299 1.6 8.0 0.00 0.00 0.00 80 1013.0
20260506035614 8 297 1.6 8.0 0.00 0.00 0.00 80 1012.9
20260506035114 8 300 1.6 4.8 0.00 0.00 0.00 80 1012.9
20260506034612 8 299 0.0 6.4 0.00 0.00 0.00 80 1012.8
20260506034110 8 296 1.6 6.4 0.00 0.00 0.00 80 1012.8
20260506033610 8 298 0.0 3.2 0.00 0.00 0.00 80 1012.8
20260506033106 8 297 0.0 4.8 0.00 0.00 0.00 80 1012.8
20260506032607 8 297 1.6 6.4 0.00 0.00 0.00 80 1012.8
20260506032105 8 297 1.6 6.4 0.00 0.00 0.00 80 1012.9
20260506031604 8 301 0.0 6.4 0.00 0.00 0.00 80 1012.9
20260506031105 8 299 0.0 6.4 0.00 0.00 0.00 80 1012.9
20260506030604 8 297 0.0 3.2 0.00 0.00 0.00 80 1012.9
20260506030104 8 297 0.0 6.4 0.00 0.00 0.00 81 1013.0
20260506025603 8 292 1.6 6.4 0.00 0.00 0.00 81 1012.9
20260506025104 8 300 0.0 6.4 0.00 0.00 0.00 81 1013.0
20260506024604 8 295 0.0 4.8 0.00 0.00 0.00 82 1012.9
20260506024107 8 296 0.0 4.8 0.00 0.00 0.00 82 1013.0
20260506023606 8 296 0.0 4.8 0.00 0.00 0.00 82 1013.0
20260506023102 8 295 0.0 4.8 0.00 0.00 0.00 82 1012.9
20260506022558 8 296 0.0 4.8 0.00 0.00 0.00 82 1013.0
20260506022056 9 295 0.0 1.6 0.00 0.00 0.00 82 1013.0
20260506021557 9 295 0.0 3.2 0.00 0.00 0.00 81 1013.0
20260506021049 9 295 0.0 3.2 0.00 0.00 0.00 81 1013.0
20260506020546 9 297 0.0 4.8 0.00 0.00 0.00 81 1013.0
20260506020044 9 297 1.6 4.8 0.00 0.00 0.00 81 1013.0
20260506015544 9 298 1.6 4.8 0.00 0.00 0.00 81 1013.0
20260506015042 9 297 0.0 4.8 0.00 0.00 0.00 81 1012.9
20260506014539 9 296 0.0 1.6 0.00 0.00 0.00 81 1012.9
20260506014038 9 295 0.0 1.6 0.00 0.00 0.00 81 1012.9
20260506013536 9 295 0.0 1.6 0.00 0.00 0.00 81 1012.9
20260506013034 9 295 0.0 4.8 0.00 0.00 0.00 80 1012.9
20260506012533 9 297 0.0 4.8 0.00 0.00 0.00 80 1013.0
20260506012034 9 296 0.0 6.4 0.00 0.00 0.00 80 1013.0
20260506011531 9 297 1.6 6.4 0.00 0.00 0.00 80 1013.1
20260506011030 9 297 1.6 6.4 0.00 0.00 0.00 80 1013.0
20260506010531 9 295 1.6 6.4 0.00 0.00 0.00 80 1013.1
20260506010032 9 298 1.6 8.0 0.00 0.00 0.00 79 1013.0
20260506005530 9 295 1.6 8.0 0.00 0.00 0.00 79 1013.0
20260506005030 9 294 0.0 4.8 0.00 0.00 0.00 79 1012.9
20260506004530 9 295 0.0 4.8 0.00 0.00 0.00 79 1013.0